Crumpler, NC

12:01 PM EST on January 19, 2017 (GMT -0500)
Ashe County

Weather History for KGEV - October, 2010

Change the Weather History Date:

Wednesday, October 13, 2010

  Actual Average Record
Temperature  
Mean Temperature 60 °F -  
Max Temperature 66 °F 66 °F 80 °F (1969)
Min Temperature 53 °F 40 °F 26 °F (1981)
Degree Days  
Heating Degree Days 6    
Growing Degree Days 10 (Base 50)    
Moisture  
Dew Point 51 °F    
Average Humidity 76    
Maximum Humidity 94    
Minimum Humidity 56    
Precipitation  
Precipitation 0.01 in - - ()
Sea Level Pressure  
Sea Level Pressure 30.05 in    
Wind  
Wind Speed 4 mph (NW)    
Max Wind Speed 10 mph    
Max Gust Speed -    
Visibility 10 miles    
Events Rain    
Averages and records for this station are not official NWS values.
T = Trace of Precipitation, MM = Missing Value Source: NWS Daily Summary

Daily Weather History Graph

Daily Weather History Graph

Search for Another Location

Airport or City:

Trip Planner

Search our weather history database for the weather conditions in past years. The results will help you decide how hot, cold, wet, or windy it might be!

Date:

Astronomy

Oct. 13, 2010 Rise Set
Actual Time 7:31 AM EDT 6:52 PM EDT
Civil Twilight 7:05 AM EDT 7:18 PM EDT
Nautical Twilight 6:35 AM EDT 7:47 PM EDT
Astronomical Twilight 6:05 AM EDT 8:17 PM EDT
Moon 1:42 PM EDT (10/13) 11:37 PM EDT (10/13)
Length of Visible Light 12h 12m
Length of Day
11h 21m
Waxing Crescent, 38% of the Moon is Illuminated
Oct 13
Waxing Crescent
Oct 14
First Quarter
Oct 22
Full
Oct 30
Last Quarter
Nov 6
New

Hourly Weather History & Observations

Time (EDT) Temp. Dew Point Humidity Pressure Visibility Wind Dir Wind Speed Gust Speed Precip Events Conditions
12:01 AM 60.8 °F 48.2 °F 63% 30.05 in 10.0 mi West 10.4 mph - N/A   Mostly Cloudy
12:21 AM 60.8 °F 48.2 °F 63% 30.05 in 10.0 mi West 10.4 mph - N/A   Mostly Cloudy
12:43 AM 59.0 °F 48.2 °F 67% 30.05 in 10.0 mi West 6.9 mph - N/A   Mostly Cloudy
1:01 AM 59.0 °F 48.2 °F 67% 30.06 in 10.0 mi SW 5.8 mph - N/A Rain Light Rain
1:21 AM 59.0 °F 50.0 °F 72% 30.06 in 10.0 mi West 6.9 mph - N/A   Drizzle
1:41 AM 57.2 °F 50.0 °F 77% 30.06 in 10.0 mi West 6.9 mph - N/A   Drizzle
2:01 AM 57.2 °F 51.8 °F 82% 30.05 in 10.0 mi West 6.9 mph - N/A   Drizzle
2:21 AM 57.2 °F 50.0 °F 77% 30.04 in 10.0 mi NE 3.5 mph - N/A   Overcast
2:41 AM 55.4 °F 51.8 °F 88% 30.02 in 10.0 mi NNE 4.6 mph - N/A   Mostly Cloudy
3:01 AM 55.4 °F 51.8 °F 88% 30.02 in 10.0 mi North 5.8 mph - N/A   Scattered Clouds
3:23 AM 55.4 °F 51.8 °F 88% 30.02 in 10.0 mi North 6.9 mph - N/A   Scattered Clouds
3:41 AM 55.4 °F 50.0 °F 82% 30.01 in 10.0 mi Calm Calm - N/A   Mostly Cloudy
4:01 AM 57.2 °F 50.0 °F 77% 30.01 in 10.0 mi Calm Calm - N/A   Overcast
4:21 AM 57.2 °F 50.0 °F 77% 30.01 in 10.0 mi Calm Calm - N/A   Overcast
4:41 AM 57.2 °F 50.0 °F 77% 30.01 in 10.0 mi Calm Calm - N/A   Overcast
5:01 AM 57.2 °F 50.0 °F 77% 30.01 in 10.0 mi Calm Calm - N/A   Overcast
5:21 AM 55.4 °F 50.0 °F 82% 30.01 in 10.0 mi Calm Calm - N/A   Overcast
5:41 AM 55.4 °F 50.0 °F 82% 30.02 in 10.0 mi Calm Calm - N/A   Overcast
6:01 AM 55.4 °F 50.0 °F 82% 30.02 in 10.0 mi Calm Calm - N/A   Mostly Cloudy
6:21 AM 55.4 °F 50.0 °F 82% 30.02 in 10.0 mi Calm Calm - N/A   Mostly Cloudy
6:41 AM 53.6 °F 50.0 °F 88% 30.03 in 10.0 mi Calm Calm - N/A   Overcast
7:01 AM 55.4 °F 50.0 °F 82% 30.03 in 10.0 mi Calm Calm - N/A   Overcast
7:21 AM 55.4 °F 50.0 °F 82% 30.04 in 10.0 mi Calm Calm - N/A   Overcast
7:41 AM 57.2 °F 50.0 °F 77% 30.04 in 10.0 mi Calm Calm - N/A   Overcast
8:01 AM 55.4 °F 50.0 °F 82% 30.05 in 10.0 mi Calm Calm - N/A   Overcast
8:21 AM 53.6 °F 51.8 °F 94% 30.05 in 10.0 mi Calm Calm - N/A   Overcast
8:41 AM 53.6 °F 51.8 °F 94% 30.06 in 7.0 mi Calm Calm - N/A   Overcast
9:01 AM 53.6 °F 51.8 °F 94% 30.07 in 5.0 mi Calm Calm - N/A Rain Light Rain
9:21 AM 55.4 °F 51.8 °F 88% 30.08 in 7.0 mi Calm Calm - N/A   Overcast
9:41 AM 55.4 °F 51.8 °F 88% 30.08 in 10.0 mi Calm Calm - N/A   Overcast
10:01 AM 55.4 °F 51.8 °F 88% 30.08 in 10.0 mi Calm Calm - N/A   Overcast
10:21 AM 57.2 °F 51.8 °F 82% 30.08 in 10.0 mi Calm Calm - N/A   Overcast
10:43 AM 59.0 °F 50.0 °F 72% 30.08 in 10.0 mi Calm Calm - N/A   Mostly Cloudy
11:01 AM 59.0 °F 50.0 °F 72% 30.09 in 10.0 mi Calm Calm - N/A   Mostly Cloudy
11:21 AM 60.8 °F 50.0 °F 68% 30.08 in 10.0 mi Calm Calm - N/A   Mostly Cloudy
11:41 AM 60.8 °F 50.0 °F 68% 30.08 in 10.0 mi Calm Calm - N/A   Mostly Cloudy
12:01 PM 60.8 °F 50.0 °F 68% 30.08 in 10.0 mi Calm Calm - N/A   Overcast
12:21 PM 60.8 °F 50.0 °F 68% 30.08 in 10.0 mi Calm Calm - N/A   Overcast
12:41 PM 62.6 °F 50.0 °F 63% 30.08 in 10.0 mi Calm Calm - N/A   Mostly Cloudy
1:01 PM 64.4 °F 51.8 °F 64% 30.07 in 10.0 mi Calm Calm - N/A   Mostly Cloudy
1:23 PM 64.4 °F 50.0 °F 59% 30.06 in 10.0 mi Calm Calm - N/A   Overcast
1:42 PM 64.4 °F 50.0 °F 59% 30.06 in 10.0 mi SSE 3.5 mph - N/A   Overcast
2:01 PM 66.2 °F 50.0 °F 56% 30.04 in 10.0 mi SE 3.5 mph - N/A   Mostly Cloudy
2:23 PM 66.2 °F 50.0 °F 56% 30.04 in 10.0 mi Calm Calm - N/A   Mostly Cloudy
2:41 PM 64.4 °F 50.0 °F 59% 30.02 in 10.0 mi SE 3.5 mph - N/A   Mostly Cloudy
3:01 PM 64.4 °F 48.2 °F 56% 30.02 in 10.0 mi ENE 5.8 mph - N/A Rain Light Rain
3:21 PM 60.8 °F 51.8 °F 72% 30.03 in 10.0 mi NE 6.9 mph - N/A Rain Light Rain
3:41 PM 60.8 °F 51.8 °F 72% 30.03 in 10.0 mi Calm Calm - N/A Rain Rain
4:01 PM 59.0 °F 51.8 °F 77% 30.04 in 10.0 mi North 3.5 mph - N/A Rain Rain
4:23 PM 57.2 °F 51.8 °F 82% 30.04 in 10.0 mi NE 3.5 mph - 0.01 in Rain Rain
4:41 PM 57.2 °F 51.8 °F 82% 30.03 in 2.5 mi ESE 4.6 mph - 0.01 in Rain Heavy Rain
5:01 PM 55.4 °F 53.6 °F 94% 30.03 in 10.0 mi SW 3.5 mph - N/A   Overcast
5:22 PM 57.2 °F 53.6 °F 88% 30.03 in 5.0 mi Calm Calm - N/A   Overcast
5:41 PM 57.2 °F 53.6 °F 88% 30.03 in 3.0 mi Calm Calm - N/A   Light Drizzle
6:01 PM 57.2 °F 53.6 °F 88% 30.03 in 3.0 mi Calm Calm - N/A   Mostly Cloudy
6:21 PM 57.2 °F 53.6 °F 88% 30.02 in 10.0 mi WSW 3.5 mph - N/A   Scattered Clouds
6:41 PM 57.2 °F 53.6 °F 88% 30.02 in 10.0 mi West 4.6 mph - N/A   Mostly Cloudy
7:01 PM 57.2 °F 51.8 °F 82% 30.03 in 10.0 mi NNW 4.6 mph - N/A   Mostly Cloudy
7:21 PM 55.4 °F 53.6 °F 94% 30.04 in 5.0 mi Calm Calm - N/A   Mostly Cloudy
7:41 PM 55.4 °F 53.6 °F 94% 30.04 in 7.0 mi Calm Calm - N/A   Overcast
8:01 PM 55.4 °F 53.6 °F 94% 30.04 in 7.0 mi Calm Calm - N/A   Overcast
8:21 PM 55.4 °F 53.6 °F 94% 30.04 in 1.5 mi Calm Calm - N/A Rain Light Rain
8:41 PM 55.4 °F 53.6 °F 94% 30.04 in 5.0 mi Calm Calm - N/A   Scattered Clouds
9:01 PM 55.4 °F 53.6 °F 94% 30.04 in 4.0 mi Calm Calm - N/A   Scattered Clouds
9:21 PM 55.4 °F 53.6 °F 94% 30.04 in 5.0 mi Calm Calm - N/A   Clear
9:41 PM 53.6 °F 53.6 °F 100% 30.04 in 1.0 mi Calm Calm - N/A   Mostly Cloudy
10:02 PM 55.4 °F 53.6 °F 94% 30.04 in 5.0 mi Calm Calm - N/A   Clear
10:21 PM 53.6 °F 53.6 °F 100% 30.04 in 2.5 mi Calm Calm - N/A   Scattered Clouds
10:41 PM 53.6 °F 51.8 °F 94% 30.04 in 0.8 mi Calm Calm - N/A   Mostly Cloudy
11:21 PM 53.6 °F 51.8 °F 94% 30.03 in 0.5 mi Calm Calm - N/A Fog Fog
11:41 PM 53.6 °F 53.6 °F 100% 30.03 in 2.5 mi Calm Calm - N/A   Scattered Clouds